Dubuque, IA

12:38 PM CDT on October 20, 2019 (GMT -0500)
Dubuque Regional

Weather History for KDBQ - August, 2019

Change the Weather History Date:

Friday, August 16, 2019

  Actual Average Record
Temperature  
Mean Temperature 70 °F 70 °F  
Max Temperature 79 °F 80 °F 100 °F (1937)
Min Temperature 61 °F 61 °F 47 °F (1992)
Degree Days  
Heating Degree Days 0 1  
Month to date heating degree days 0 1  
Since 1 June heating degree days 29 49  
Since 1 July heating degree days 0 9  
Cooling Degree Days 5 6  
Month to date cooling degree days 87 101  
Year to date cooling degree days 540 501  
Since 1 June cooling degree days 514 464  
Growing Degree Days 20 (Base 50)    
Moisture  
Dew Point 63 °F    
Average Humidity 77    
Maximum Humidity 93    
Minimum Humidity 60    
Precipitation  
Precipitation 0.00 in 0.15 in 4.26 in (1918)
Month to date precipitation 3.10 2.31  
Year to date precipitation 29.21 23.89  
Snow  
Snow 0.00 in 0.00 in - ()
Month to date snowfall 0.0 0.0  
Since 1 June snowfall 0.0 0.0  
Since 1 July snowfall 0.0 0.0  
Snow Depth 0.00 in    
Sea Level Pressure  
Sea Level Pressure 29.89 in    
Wind  
Wind Speed 7 mph (SW)    
Max Wind Speed 17 mph    
Max Gust Speed 24 mph    
Visibility 10 miles    
Events      
T = Trace of Precipitation, MM = Missing Value Source: NWS Daily Summary

Daily Weather History Graph

Daily Weather History Graph

Search for Another Location

Airport or City:

Astronomy

Aug. 16, 2019 Rise Set
Actual Time 6:10 AM CDT 8:02 PM CDT
Civil Twilight 5:40 AM CDT 8:32 PM CDT
Nautical Twilight 5:03 AM CDT 9:09 PM CDT
Astronomical Twilight 4:23 AM CDT 9:49 PM CDT
Moon 9:01 PM CDT (8/16) 7:02 AM CDT (8/16)
Length of Visible Light 14h 52m
Length of Day
13h 51m
Full, 99% of the Moon is Illuminated
Aug 16
Full
Aug 23
Last Quarter
Aug 30
New
Sep 5
First Quarter
Sep 13
Full

Hourly Weather History & Observations

Time (CDT) Temp. Dew Point Humidity Pressure Visibility Wind Dir Wind Speed Gust Speed Precip Events Conditions
12:53 AM 63.0 °F 61.0 °F 93% 29.95 in 10.0 mi South 6.9 mph - N/A   Scattered Clouds
1:53 AM 63.0 °F 61.0 °F 93% 29.92 in 10.0 mi Calm Calm - N/A   Mostly Cloudy
2:53 AM 64.0 °F 61.0 °F 90% 29.91 in 10.0 mi SSE 5.8 mph - N/A   Overcast
3:53 AM 64.0 °F 60.1 °F 87% 29.90 in 10.0 mi SSE 6.9 mph - N/A   Mostly Cloudy
4:53 AM 64.0 °F 60.1 °F 87% 29.89 in 10.0 mi SSE 9.2 mph - N/A   Overcast
5:53 AM 64.0 °F 61.0 °F 90% 29.90 in 10.0 mi South 6.9 mph - N/A   Overcast
6:53 AM 64.0 °F 61.0 °F 90% 29.88 in 10.0 mi South 8.1 mph - N/A   Overcast
7:53 AM 66.0 °F 62.1 °F 87% 29.90 in 10.0 mi SSW 9.2 mph - N/A   Overcast
8:53 AM 66.9 °F 63.0 °F 87% 29.91 in 10.0 mi SSW 6.9 mph - N/A   Overcast
9:53 AM 71.1 °F 64.9 °F 81% 29.89 in 10.0 mi SW 9.2 mph - N/A   Mostly Cloudy
10:53 AM 73.0 °F 66.0 °F 79% 29.89 in 10.0 mi SSW 8.1 mph - N/A   Mostly Cloudy
11:28 AM 73.0 °F 66.0 °F 79% 29.89 in 10.0 mi SW 9.2 mph - N/A   Overcast
11:53 AM 73.0 °F 66.0 °F 79% 29.89 in 10.0 mi SW 12.7 mph - N/A   Overcast
12:04 PM 73.9 °F 66.9 °F 79% 29.89 in 10.0 mi SW 10.4 mph - N/A   Overcast
12:53 PM 77.0 °F 66.9 °F 71% 29.87 in 10.0 mi SW 12.7 mph - N/A   Scattered Clouds
1:53 PM 77.0 °F 64.9 °F 66% 29.86 in 10.0 mi WSW 11.5 mph - N/A   Scattered Clouds
2:53 PM 78.1 °F 64.0 °F 62% 29.86 in 10.0 mi West 11.5 mph 20.7 mph N/A   Scattered Clouds
3:53 PM 77.0 °F 63.0 °F 62% 29.86 in 10.0 mi West 12.7 mph - N/A   Partly Cloudy
4:53 PM 75.9 °F 62.1 °F 62% 29.86 in 10.0 mi West 9.2 mph - N/A   Partly Cloudy
5:53 PM 77.0 °F 63.0 °F 62% 29.86 in 10.0 mi West 10.4 mph - N/A   Clear
6:53 PM 75.0 °F 63.0 °F 66% 29.86 in 10.0 mi West 8.1 mph - N/A   Clear
7:53 PM 70.0 °F 64.0 °F 81% 29.86 in 10.0 mi West 4.6 mph - N/A   Clear
8:53 PM 68.0 °F 63.0 °F 84% 29.87 in 10.0 mi Calm Calm - N/A   Clear
9:53 PM 66.0 °F 62.1 °F 87% 29.88 in 10.0 mi Calm Calm - N/A   Clear
10:53 PM 66.0 °F 61.0 °F 84% 29.89 in 10.0 mi Calm Calm - N/A   Clear